[[{"header":{"parameterUnit":"m.s-1","parameterCategory":1,"la1":30.2992,"la2":30.254,"lo1":-89.0895,"lo2":-89.0443,"dy":0.0025,"dx":0.0025,"nx":19,"ny":19,"refTime":"2026-04-22T03:00:00:Z","depth":0,"parameterNumber":2,"parameterNumberName":"U-component_of_WINDS"},"data":[0,0,0,-2.8597,-2.8599,-2.869,-2.869,-2.8817,-2.8818,0,0,0,0,0,0,0,0,0,0,0,-2.8577,-2.8578,-2.8597,-2.8599,-2.869,-2.869,-2.8816,-2.8818,0,0,0,0,0,0,0,0,0,0,0,-2.8577,-2.8578,-2.8579,-2.86,-2.869,-2.869,-2.8816,-2.8744,0,0,0,0,0,0,0,0,0,0,-2.8654,-2.8643,-2.8578,-2.8579,-2.86,-2.869,-2.869,-2.874,-2.8748,-2.878,0,-2.8811,0,-2.8817,-2.8827,-2.8828,0,0,0,-2.8594,-2.8636,-2.8654,-2.858,-2.8601,-2.869,-2.8647,-2.8744,-2.8754,-2.8791,-2.8813,-2.8817,-2.8819,-2.8828,-2.8829,-2.9033,-2.9034,0,0,-2.8589,-2.8597,-2.8648,-2.866,-2.8648,-2.8644,-2.865,-2.875,-2.8774,-2.8814,-2.882,-2.8821,-2.8829,-2.883,-2.9032,-2.9033,0,0,0,-2.8578,-2.8594,-2.8609,-2.8656,-2.8671,-2.8647,-2.8654,-2.877,-2.8774,-2.8822,-2.8822,-2.883,-2.8831,-2.9031,-2.9032,-2.91,0,0,0,-2.8575,-2.8588,-2.8607,-2.8614,-2.867,-2.8722,-2.8672,-2.8767,-2.8778,-2.8822,-2.883,-2.8833,-2.9029,-2.9032,-2.9096,-2.9131,0,0,0,-2.8569,-2.8587,-2.8603,-2.8614,-2.8653,-2.872,-2.873,-2.8769,-2.8779,-2.8828,-2.8833,-2.9028,-2.9031,-2.9092,-2.9124,-2.9187,0,0,0,-2.8565,-2.8663,-2.8604,-2.8713,-2.8653,-2.8762,-2.8729,-2.881,-2.886,-2.883,-2.9029,-2.9032,-2.909,-2.912,-2.9182,-2.924,-2.9266,0,0,-2.8693,-2.8678,-2.8742,-2.8692,-2.8814,-2.8747,-2.8879,-2.8916,-2.8913,-2.8993,-2.8998,-2.9097,-2.9124,-2.9186,-2.9406,-2.9426,0,0,0,-2.8785,-2.8831,-2.8861,-2.8909,-2.894,-2.8969,-2.8986,-2.8999,-2.9067,-2.8956,-2.9137,-2.9152,-2.9188,-2.9216,-2.9233,-2.9263,-2.9046,-2.9045,-2.9045,-2.8979,-2.8969,-2.9072,-2.9074,-2.9121,-2.9136,-2.9173,-2.9194,-2.917,-2.9213,-2.9237,-2.9372,-2.9404,-2.9417,-2.9448,-2.9267,-2.9268,-2.9268,-2.9268,-2.9164,-2.9227,-2.9193,-2.9281,-2.927,-2.9344,-2.9362,-2.9343,-2.941,-2.9353,-2.9385,-2.9323,-2.9439,-2.9466,-2.9273,-2.9272,-2.9272,-2.9271,-2.9271,-2.9289,-2.9317,-2.9332,-2.94,-2.9453,-2.945,-2.9516,-2.9503,-2.9492,-2.9523,-2.9546,-2.9544,-2.9541,-2.9535,-2.9535,-2.9536,-2.9536,-2.9536,-2.9537,-2.9412,-2.9427,-2.9484,-2.9524,-2.9553,-2.9589,-2.9605,-2.9632,-2.966,-2.9645,-2.9645,-2.9617,-2.9453,-2.9411,-2.9544,-2.9543,-2.9542,-2.9541,-2.9541,-2.9603,-2.9558,-2.9646,-2.9674,-2.972,-2.9773,-2.9756,-2.9813,-2.9834,-2.9866,-2.9831,-2.9712,-2.9696,-2.9682,-2.9648,-2.9834,-2.9834,-2.9834,-2.9834,-2.9708,-2.9699,-2.9785,-2.9831,-2.9875,-2.9868,-2.9967,-2.998,-2.9986,-2.9998,-2.9969,-2.9923,-2.9909,-2.9901,-2.9883,-2.985,-3.0083,-3.0083,-3.0084,-2.9824,-2.9818,-2.9905,-2.991,-2.9945,-2.9974,-3.0066,-3.012,-3.0117,-3.0094,-3.0007,-2.9996,-2.9921,-2.9897,-2.9871,-2.9842,-2.9782,0,0]},{"header":{"parameterUnit":"m.s-1","parameterCategory":1,"la1":30.2992,"la2":30.254,"lo1":-89.0895,"lo2":-89.0443,"dy":0.0025,"dx":0.0025,"nx":19,"ny":19,"refTime":"2026-04-22T03:00:00:Z","depth":0,"parameterNumber":3,"parameterNumberName":"V-component_of_WINDS"},"data":[0,0,0,2.4459,2.4459,2.4455,2.4455,2.4469,2.447,0,0,0,0,0,0,0,0,0,0,0,2.4473,2.4473,2.4459,2.4459,2.4455,2.4455,2.4469,2.447,0,0,0,0,0,0,0,0,0,0,0,2.4472,2.4473,2.4474,2.446,2.4455,2.4455,2.4469,2.4465,0,0,0,0,0,0,0,0,0,0,2.4466,2.449,2.4473,2.4474,2.446,2.4455,2.4455,2.4465,2.4466,2.448,0,2.4496,0,2.4483,2.4472,2.4472,0,0,0,2.445,2.449,2.4478,2.4474,2.446,2.4455,2.4455,2.4465,2.4466,2.4481,2.4496,2.4496,2.4483,2.4472,2.4472,2.4583,2.4584,0,0,2.4451,2.4478,2.4477,2.4479,2.4481,2.4455,2.4455,2.4465,2.4483,2.4496,2.4496,2.4484,2.4472,2.4473,2.4582,2.4583,0,0,0,2.4457,2.4479,2.4466,2.4479,2.4477,2.4455,2.4455,2.4483,2.4476,2.4496,2.4484,2.4473,2.4473,2.4581,2.4582,2.4654,0,0,0,2.4457,2.4483,2.4467,2.4484,2.4477,2.448,2.4472,2.4476,2.4476,2.4484,2.4473,2.4473,2.458,2.4582,2.465,2.4683,0,0,0,2.4469,2.4484,2.4487,2.4485,2.4484,2.4479,2.4473,2.4475,2.4469,2.4472,2.4473,2.4579,2.4581,2.4646,2.4677,2.4719,0,0,0,2.4489,2.4552,2.4489,2.4555,2.4485,2.4524,2.4472,2.45,2.4512,2.4473,2.458,2.4582,2.4645,2.4673,2.4715,2.4758,2.4779,0,0,2.4584,2.4565,2.4601,2.4545,2.4602,2.4522,2.459,2.4575,2.455,2.4573,2.4576,2.4651,2.4676,2.4718,2.489,2.4906,0,0,0,2.4641,2.4667,2.4677,2.4688,2.4678,2.4671,2.4643,2.4637,2.4655,2.4568,2.4678,2.4692,2.4715,2.4734,2.4749,2.4766,2.4593,2.4592,2.4592,2.4814,2.4779,2.4837,2.4801,2.4813,2.4783,2.4789,2.4776,2.4737,2.4764,2.477,2.4878,2.4902,2.4912,2.4931,2.4791,2.4792,2.4792,2.4792,2.4949,2.498,2.4927,2.4964,2.4926,2.4957,2.493,2.4901,2.4924,2.4871,2.489,2.4834,2.4932,2.4946,2.4797,2.4796,2.4795,2.4795,2.4795,2.5057,2.5066,2.5058,2.507,2.5084,2.5046,2.5069,2.5035,2.5002,2.5021,2.5023,2.5021,2.5014,2.5025,2.5025,2.5025,2.5026,2.5026,2.5026,2.5172,2.516,2.5184,2.5178,2.5181,2.5179,2.5149,2.5151,2.5143,2.5116,2.5116,2.5074,2.4949,2.4917,2.5032,2.5031,2.503,2.503,2.5029,2.5319,2.528,2.5317,2.5319,2.5309,2.5324,2.528,2.5285,2.5281,2.5294,2.5248,2.5162,2.514,2.5128,2.5101,2.5257,2.5257,2.5257,2.5257,2.5409,2.5394,2.5423,2.5429,2.5431,2.5395,2.5437,2.5414,2.5384,2.538,2.5352,2.5315,2.5305,2.5288,2.5273,2.5247,2.5436,2.5437,2.5437,2.5496,2.548,2.5522,2.5493,2.5481,2.5473,2.5511,2.5519,2.5478,2.5443,2.5375,2.5367,2.5306,2.5288,2.5251,2.5228,2.518,0,0]}]]